Regional Weather Roundup
Issued by NWS

Home | Current Version | Previous Version | Text Only | Print | Product List | Glossary Off
Versions: 1 2 3 4 5 6 7 8 9 10 11 12 13 14 15 16 17 18 19 20 21 22 23 24 25 26 27

000
ASUS45 KCYS 190410
RWRWY

WYOMING REGIONAL WEATHER ROUNDUP
NATIONAL WEATHER SERVICE CHEYENNE WY
900 PM MST WED JAN 18 2017

NOTE:  "FAIR" INDICATES FEW OR NO CLOUDS BELOW 12,000 FEET
WITH NO SIGNIFICANT WEATHER AND/OR OBSTRUCTIONS TO VISIBILITY.

WYZ001-190500-
YELLOWSTONE NATIONAL PARK

CITY           SKY/WX    TMP DP  RH WIND       PRES   REMARKS
LK YELLOWSTONE   N/A     10   8  92 CALM      29.85S
W YELLOWSTONE  NOT AVBL

$$
WYZ002>013-054>058-071-098>099-190500-
NORTHERN WYOMING

CITY           SKY/WX    TMP DP  RH WIND       PRES   REMARKS
JACKSON        CLOUDY     7   3  85 N5        29.88F WCI  -2
CODY           FAIR      40  16  37 VRB3      29.66F
GREYBULL       FAIR      11   6  81 CALM      29.72F
WORLAND        FAIR      22  16  78 SE17      29.73R WCI   8
SHERIDAN       FAIR      21  16  81 SW13      29.63S WCI   9
BUFFALO        FAIR      44  18  35 NW10      29.65R
GILLETTE       FAIR      31  22  69 S3        29.63R
HULETT         FAIR      34  21  60 S6        29.62R WCI  29
NEWCASTLE      FAIR      28  19  69 S3        29.63F

$$
WYZ014>020-022>026-101>103-190500-
CENTRAL WYOMING

CITY           SKY/WX    TMP DP  RH WIND       PRES   REMARKS
BIG PINEY      FAIR      -5  -8  87 NW8       29.88F WCI -20
PINEDALE       FAIR      -4  -8  84 CALM      29.88R
DUBOIS         NOT AVBL
LANDER         FAIR      14   9  80 E5        29.77F WCI   6
RIVERTON       FAIR      10   4  76 CALM      29.78S
CASPER         FAIR      32  18  56 SW21G29   29.75R WCI  20
DOUGLAS        FAIR      26  17  68 NW6       29.67F WCI  19

$$
WYZ021-027>030-104>119-190500-
SOUTHERN WYOMING

CITY           SKY/WX    TMP DP  RH WIND       PRES   REMARKS
EVANSTON       FAIR      23   8  52 S6        29.86F WCI  16
ROCK SPRINGS   FAIR       9   3  77 CALM      29.88F
RAWLINS        FAIR      25  16  68 VRB3      29.87F
LARAMIE        FAIR      14  12  92 E6        29.78F WCI   5
CHEYENNE       FAIR      29  17  61 W6        29.71F WCI  23
TORRINGTON     FAIR      33  19  56 CALM      29.66F

$$




USA.gov is the U.S. government's official web portal to all federal, state and local government web resources and services.